Year,Month,Day,Hour,Minute,Value (Times are PST for temperature in C)
2010,07,16,00,00,14.90
2010,07,16,00,01,14.90
2010,07,16,00,02,14.90
2010,07,16,00,03,14.80
2010,07,16,00,04,14.80
2010,07,16,00,05,14.80
2010,07,16,00,06,14.80
2010,07,16,00,07,14.80
2010,07,16,00,08,14.80
2010,07,16,00,09,14.80
2010,07,16,00,10,14.70
2010,07,16,00,11,14.70
2010,07,16,00,12,14.70
2010,07,16,00,13,14.70
2010,07,16,00,14,14.70
2010,07,16,00,15,14.70
2010,07,16,00,16,14.70
2010,07,16,00,17,14.70
2010,07,16,00,18,14.70
2010,07,16,00,19,14.70
2010,07,16,00,20,14.70
2010,07,16,06,53,12.70
2010,07,16,06,54,12.70
2010,07,16,06,55,12.70
2010,07,16,06,56,12.70
2010,07,16,06,57,12.70
2010,07,16,06,58,12.70
2010,07,16,06,59,12.80
2010,07,16,07,00,12.80
2010,07,16,07,01,12.80
2010,07,16,07,02,12.80
2010,07,16,07,03,12.80
2010,07,16,07,04,12.80
2010,07,16,07,05,12.90
2010,07,16,07,06,12.90
2010,07,16,07,07,12.90
2010,07,16,07,08,12.90
2010,07,16,07,09,12.90
2010,07,16,07,10,12.90
2010,07,16,07,11,13.00
2010,07,16,07,12,13.00
2010,07,16,07,13,13.10
2010,07,16,07,14,13.10
2010,07,16,07,15,13.10
2010,07,16,07,16,13.20
2010,07,16,07,17,13.20
2010,07,16,07,18,13.20
2010,07,16,07,19,13.20
2010,07,16,07,20,13.30
2010,07,16,07,21,13.30
2010,07,16,07,22,13.30
2010,07,16,07,23,13.30
2010,07,16,07,24,13.30
2010,07,16,07,25,13.40
2010,07,16,07,26,13.40
2010,07,16,07,27,13.40
2010,07,16,07,28,13.40
2010,07,16,07,29,13.50
2010,07,16,07,30,13.50
2010,07,16,07,31,13.50
2010,07,16,07,32,13.50
2010,07,16,07,33,13.50
2010,07,16,07,34,13.60
2010,07,16,07,35,13.60
2010,07,16,07,36,13.60
2010,07,16,07,37,13.70
2010,07,16,07,38,13.70
2010,07,16,07,39,13.70
2010,07,16,07,40,13.70
2010,07,16,07,41,13.80
2010,07,16,07,42,13.80
2010,07,16,07,43,13.80
2010,07,16,07,44,13.80
2010,07,16,07,45,13.80
2010,07,16,07,46,13.80
2010,07,16,07,47,13.90
2010,07,16,07,48,13.90
2010,07,16,07,49,13.90
2010,07,16,07,50,13.90
2010,07,16,07,51,13.90
2010,07,16,07,52,13.90
2010,07,16,07,53,13.90
2010,07,16,07,54,14.00
2010,07,16,07,55,14.00
2010,07,16,07,56,14.00
2010,07,16,07,57,14.00
2010,07,16,07,58,14.10
2010,07,16,07,59,14.10
2010,07,16,08,00,14.10
2010,07,16,08,01,14.20
2010,07,16,08,02,14.20
2010,07,16,08,03,14.30
2010,07,16,08,04,14.30
2010,07,16,08,05,14.40
2010,07,16,08,06,14.40
2010,07,16,08,07,14.50
2010,07,16,08,08,14.50
2010,07,16,08,09,14.60
2010,07,16,08,10,14.60
2010,07,16,08,11,14.60
2010,07,16,08,12,14.60
2010,07,16,08,13,14.70
2010,07,16,08,14,14.70
2010,07,16,08,15,14.70
2010,07,16,08,16,14.80
2010,07,16,08,17,14.80
2010,07,16,08,18,14.80
2010,07,16,08,19,14.80
2010,07,16,08,20,14.90
2010,07,16,08,21,15.00
2010,07,16,08,22,15.00
2010,07,16,08,23,15.00
2010,07,16,08,24,15.00
2010,07,16,08,25,15.10
2010,07,16,08,26,15.10
2010,07,16,08,27,15.20
2010,07,16,08,28,15.20
2010,07,16,08,29,15.20
2010,07,16,08,30,15.30
2010,07,16,08,31,15.30
2010,07,16,08,32,15.40
2010,07,16,08,33,15.40
2010,07,16,08,34,15.50
2010,07,16,08,35,15.60
2010,07,16,08,36,15.60
2010,07,16,08,37,15.70
2010,07,16,08,38,15.70
2010,07,16,08,39,15.80
2010,07,16,08,40,15.90
2010,07,16,08,41,16.00
2010,07,16,08,42,16.10
2010,07,16,08,43,16.20
2010,07,16,08,44,16.30
2010,07,16,08,45,16.30
2010,07,16,08,46,16.40
2010,07,16,08,47,16.40
2010,07,16,08,48,16.40
2010,07,16,08,49,16.50
2010,07,16,08,50,16.50
2010,07,16,08,51,16.50
2010,07,16,08,52,16.50
2010,07,16,08,53,16.50
2010,07,16,08,54,16.50
2010,07,16,08,55,16.40
2010,07,16,08,56,16.40
2010,07,16,08,57,16.50
2010,07,16,08,58,16.40
2010,07,16,08,59,16.40
2010,07,16,09,00,16.40
2010,07,16,09,01,16.40
2010,07,16,09,02,16.40
2010,07,16,09,03,16.40
2010,07,16,09,04,16.40
2010,07,16,09,05,16.40
2010,07,16,09,06,16.40
2010,07,16,09,07,16.40
2010,07,16,09,08,16.40
2010,07,16,09,09,16.40
2010,07,16,09,10,16.40
2010,07,16,09,11,16.40
2010,07,16,09,44,17.30
2010,07,16,09,45,17.40
2010,07,16,09,46,17.40
2010,07,16,09,47,17.50
2010,07,16,09,48,17.50
2010,07,16,09,49,17.60
2010,07,16,09,50,17.60
2010,07,16,09,51,17.60
2010,07,16,09,52,17.50
2010,07,16,09,53,17.50
2010,07,16,09,54,17.40
2010,07,16,09,55,17.40
2010,07,16,09,56,17.40
2010,07,16,09,57,17.40
2010,07,16,09,58,17.50
2010,07,16,09,59,17.50
2010,07,16,10,00,17.60
2010,07,16,10,01,17.60
2010,07,16,10,02,17.60
2010,07,16,10,03,17.50
2010,07,16,10,04,17.50
2010,07,16,10,05,17.40
2010,07,16,10,06,17.30
2010,07,16,10,07,17.30
2010,07,16,10,08,17.30
2010,07,16,10,09,17.30
2010,07,16,10,10,17.30
2010,07,16,10,11,17.40
2010,07,16,10,12,17.40
2010,07,16,10,13,17.40
2010,07,16,10,14,17.50
2010,07,16,10,15,17.50
2010,07,16,10,16,17.60
2010,07,16,10,17,17.60
2010,07,16,10,18,17.70
2010,07,16,10,19,17.70
2010,07,16,10,20,17.80
2010,07,16,10,21,17.80
2010,07,16,10,22,17.80
2010,07,16,10,23,17.70
2010,07,16,10,24,17.80
2010,07,16,10,25,17.80
2010,07,16,10,26,17.80
2010,07,16,10,27,17.80
2010,07,16,10,28,17.80
2010,07,16,10,29,17.80
2010,07,16,10,30,17.80
2010,07,16,10,31,17.90
2010,07,16,10,32,17.90
2010,07,16,10,33,18.00
2010,07,16,10,34,18.10
2010,07,16,10,35,18.20
2010,07,16,10,36,18.20
2010,07,16,10,37,18.30
2010,07,16,10,38,18.20
2010,07,16,10,39,18.20
2010,07,16,10,40,18.10
2010,07,16,10,41,18.00
2010,07,16,10,42,18.00
2010,07,16,10,43,18.00
2010,07,16,10,44,17.90
2010,07,16,10,45,17.80
2010,07,16,10,46,17.80
2010,07,16,10,47,17.80
2010,07,16,10,48,17.80
2010,07,16,10,49,17.80
2010,07,16,10,50,17.90
2010,07,16,10,51,17.90
2010,07,16,10,52,17.80
2010,07,16,10,53,17.90
2010,07,16,10,54,18.00
2010,07,16,10,55,18.10
2010,07,16,10,56,18.30
2010,07,16,10,57,18.40
2010,07,16,10,58,18.50
2010,07,16,10,59,18.60
2010,07,16,11,00,18.70
2010,07,16,11,01,18.80
2010,07,16,11,02,18.90
2010,07,16,11,03,19.00
2010,07,16,11,04,19.10
2010,07,16,11,05,19.20
2010,07,16,11,06,19.30
2010,07,16,11,07,19.40
2010,07,16,11,08,19.40
2010,07,16,11,09,19.50
2010,07,16,11,10,19.60
2010,07,16,11,11,19.70
2010,07,16,11,12,19.80
2010,07,16,11,13,19.90
2010,07,16,11,14,19.90
2010,07,16,11,15,20.00
2010,07,16,11,16,19.90
2010,07,16,11,17,19.80
2010,07,16,11,18,19.70
2010,07,16,11,19,19.60
2010,07,16,11,20,19.60
2010,07,16,11,21,19.60
2010,07,16,11,22,19.60
2010,07,16,11,23,19.60
2010,07,16,11,24,19.50
2010,07,16,11,25,19.30
2010,07,16,11,26,19.20
2010,07,16,11,27,19.00
2010,07,16,11,28,18.90
2010,07,16,11,29,19.00
2010,07,16,11,30,19.10
2010,07,16,11,31,19.10
2010,07,16,11,32,19.20
2010,07,16,11,33,19.30
2010,07,16,11,34,19.30
2010,07,16,11,35,19.40
2010,07,16,11,36,19.40
2010,07,16,11,37,19.40
2010,07,16,11,38,19.40
2010,07,16,11,39,19.30
2010,07,16,11,40,19.20
2010,07,16,11,41,19.10
2010,07,16,11,42,19.10
2010,07,16,11,43,19.00
2010,07,16,11,44,18.90
2010,07,16,11,45,18.70
2010,07,16,11,46,18.60
2010,07,16,11,47,18.40
2010,07,16,11,48,18.40
2010,07,16,11,49,18.50
2010,07,16,11,50,18.60
2010,07,16,11,51,18.70
2010,07,16,11,52,18.80
2010,07,16,11,53,18.90
2010,07,16,11,54,19.00
2010,07,16,11,55,19.10
2010,07,16,11,56,19.10
2010,07,16,11,57,19.00
2010,07,16,11,58,18.90
2010,07,16,11,59,18.90
2010,07,16,12,00,18.90
2010,07,16,12,01,18.80
2010,07,16,12,02,18.80
2010,07,16,12,03,18.90
2010,07,16,12,04,19.00
2010,07,16,12,05,19.10
2010,07,16,12,06,19.00
2010,07,16,12,07,18.90
2010,07,16,12,08,19.00
2010,07,16,12,09,19.00
2010,07,16,12,10,19.10
2010,07,16,12,11,19.00
2010,07,16,12,12,18.90
2010,07,16,12,13,18.80
2010,07,16,12,14,18.80
2010,07,16,12,15,18.80
2010,07,16,12,16,18.80
2010,07,16,12,17,18.80
2010,07,16,12,18,18.80
2010,07,16,12,19,18.80
2010,07,16,12,20,18.80
2010,07,16,12,21,18.80
2010,07,16,12,22,18.90
2010,07,16,12,23,18.90
2010,07,16,12,24,18.90
2010,07,16,12,25,19.00
2010,07,16,12,26,19.10
2010,07,16,12,27,19.10
2010,07,16,12,28,19.10
2010,07,16,12,29,19.00
2010,07,16,12,30,19.00
2010,07,16,12,31,19.20
2010,07,16,12,32,19.20
2010,07,16,12,33,19.10
2010,07,16,12,34,19.10
2010,07,16,12,35,19.00
2010,07,16,12,36,19.00
2010,07,16,12,37,19.10
2010,07,16,12,38,19.20
2010,07,16,12,39,19.40
2010,07,16,12,40,19.40
2010,07,16,12,41,19.50
2010,07,16,12,42,19.60
2010,07,16,12,43,19.70
2010,07,16,12,44,19.80
2010,07,16,12,45,19.90
2010,07,16,12,46,20.00
2010,07,16,12,47,20.10
2010,07,16,12,48,20.20
2010,07,16,12,49,20.30
2010,07,16,12,50,20.30
2010,07,16,12,51,20.40
2010,07,16,12,52,20.40
2010,07,16,12,53,20.30
2010,07,16,12,54,20.30
2010,07,16,12,55,20.20
2010,07,16,12,56,20.10
2010,07,16,12,57,19.90
2010,07,16,12,58,19.60
2010,07,16,12,59,19.60
2010,07,16,13,00,19.60
2010,07,16,13,01,19.60
2010,07,16,13,02,19.70
2010,07,16,13,03,19.70
2010,07,16,13,04,19.80
2010,07,16,13,05,19.80
2010,07,16,13,06,19.90
2010,07,16,13,07,19.90
2010,07,16,13,08,19.80
2010,07,16,13,09,19.80
2010,07,16,13,10,19.70
2010,07,16,13,11,19.70
2010,07,16,13,12,19.80
2010,07,16,13,13,19.80
2010,07,16,13,14,19.80
2010,07,16,13,15,19.80
2010,07,16,13,16,19.90
2010,07,16,13,17,20.00
2010,07,16,13,18,20.10
2010,07,16,13,19,20.00
2010,07,16,13,20,19.90
2010,07,16,13,21,19.80
2010,07,16,13,22,19.70
2010,07,16,13,23,19.60
2010,07,16,13,24,19.60
2010,07,16,13,25,19.70
2010,07,16,13,26,19.70
2010,07,16,13,27,19.60
2010,07,16,13,28,19.50
2010,07,16,13,29,19.50
2010,07,16,13,30,19.50
2010,07,16,13,31,19.60
2010,07,16,13,32,19.60
2010,07,16,13,33,19.60
2010,07,16,13,34,19.70
2010,07,16,13,35,19.70
2010,07,16,13,36,19.80
2010,07,16,13,37,19.90
2010,07,16,13,38,20.00
2010,07,16,13,39,20.10
2010,07,16,13,40,20.30
2010,07,16,13,41,20.50
2010,07,16,13,42,20.60
2010,07,16,13,43,20.70
2010,07,16,13,44,20.70
2010,07,16,13,45,20.80
2010,07,16,13,46,20.90
2010,07,16,13,47,20.90
2010,07,16,13,48,21.00
2010,07,16,13,49,21.10
2010,07,16,13,50,21.20
2010,07,16,13,51,21.30
2010,07,16,13,52,21.20
2010,07,16,13,53,21.00
2010,07,16,13,54,20.80
2010,07,16,13,55,20.70
2010,07,16,13,56,20.60
2010,07,16,13,57,20.70
2010,07,16,13,58,20.80
2010,07,16,13,59,21.00
2010,07,16,14,00,21.10
2010,07,16,14,01,21.10
2010,07,16,14,02,21.10
2010,07,16,14,03,21.10
2010,07,16,14,04,21.10
2010,07,16,14,05,21.00
2010,07,16,14,06,20.90
2010,07,16,14,07,20.70
2010,07,16,14,08,20.50
2010,07,16,14,09,20.40
2010,07,16,14,10,20.30
2010,07,16,14,11,20.30
2010,07,16,14,12,20.40
2010,07,16,14,13,20.50
2010,07,16,14,14,20.60
2010,07,16,14,15,20.70
2010,07,16,14,16,20.80
2010,07,16,14,17,20.80
2010,07,16,14,18,20.90
2010,07,16,14,19,21.00
2010,07,16,14,20,21.00
2010,07,16,14,21,21.00
2010,07,16,14,22,20.90
2010,07,16,14,23,21.00
2010,07,16,14,24,21.20
2010,07,16,14,25,21.30
2010,07,16,14,26,21.40
2010,07,16,14,27,21.50
2010,07,16,14,28,21.40
2010,07,16,14,29,21.50
2010,07,16,14,30,21.50
2010,07,16,14,31,21.60
2010,07,16,14,32,21.60
2010,07,16,14,33,21.60
2010,07,16,14,34,21.70
2010,07,16,14,35,21.50
2010,07,16,14,36,21.40
2010,07,16,14,37,21.30
2010,07,16,14,38,21.20
2010,07,16,14,39,21.00
2010,07,16,14,40,20.90
2010,07,16,14,41,20.80
2010,07,16,14,42,20.80
2010,07,16,14,43,20.80
2010,07,16,14,44,20.80
2010,07,16,14,45,20.70
2010,07,16,14,46,20.60
2010,07,16,14,47,20.60
2010,07,16,14,48,20.70
2010,07,16,14,49,20.70
2010,07,16,14,50,20.70
2010,07,16,14,51,20.70
2010,07,16,14,52,20.70
2010,07,16,14,53,20.70
2010,07,16,14,54,20.80
2010,07,16,14,55,20.80
2010,07,16,14,56,20.80
2010,07,16,14,57,21.00
2010,07,16,14,58,20.90
2010,07,16,14,59,20.90
2010,07,16,15,00,20.80
2010,07,16,15,01,20.80
2010,07,16,15,02,20.80
2010,07,16,15,03,20.90
2010,07,16,15,04,21.00
2010,07,16,15,05,21.10
2010,07,16,15,06,21.20
2010,07,16,15,07,21.30
2010,07,16,15,08,21.30
2010,07,16,15,09,21.40
2010,07,16,15,10,21.50
2010,07,16,15,11,21.60
2010,07,16,15,12,21.70
2010,07,16,15,13,21.80
2010,07,16,15,14,21.90
2010,07,16,15,15,21.80
2010,07,16,15,16,21.80
2010,07,16,15,17,21.80
2010,07,16,15,18,21.70
2010,07,16,15,19,21.50
2010,07,16,15,20,21.30
2010,07,16,15,21,21.00
2010,07,16,15,22,20.70
2010,07,16,15,23,20.40
2010,07,16,15,24,20.10
2010,07,16,15,25,19.90
2010,07,16,15,26,19.80
2010,07,16,15,27,19.70
2010,07,16,15,28,19.60
2010,07,16,15,29,19.60
2010,07,16,15,30,19.60
2010,07,16,15,31,19.90
2010,07,16,15,32,20.00
2010,07,16,15,33,20.20
2010,07,16,15,34,20.30
2010,07,16,15,35,20.30
2010,07,16,15,36,20.30
2010,07,16,15,37,20.10
2010,07,16,15,38,20.00
2010,07,16,15,39,19.90
2010,07,16,15,40,19.80
2010,07,16,15,41,19.90
2010,07,16,15,42,20.00
2010,07,16,15,43,20.20
2010,07,16,15,44,20.40
2010,07,16,15,45,20.60
2010,07,16,15,46,20.70
2010,07,16,15,47,20.90
2010,07,16,15,48,21.10
2010,07,16,15,49,21.20
2010,07,16,15,50,21.20
2010,07,16,15,51,21.30
2010,07,16,15,52,21.30
2010,07,16,15,53,21.30
2010,07,16,15,54,21.30
2010,07,16,15,55,21.40
2010,07,16,15,56,21.40
2010,07,16,15,57,21.50
2010,07,16,15,58,21.60
2010,07,16,15,59,21.70
2010,07,16,16,00,21.80
2010,07,16,16,01,21.90
2010,07,16,16,02,22.00
2010,07,16,16,03,22.10
2010,07,16,16,04,22.00
2010,07,16,16,05,21.90
2010,07,16,16,06,21.90
2010,07,16,16,07,21.80
2010,07,16,16,08,21.70
2010,07,16,16,09,21.60
2010,07,16,16,10,21.50
2010,07,16,16,11,21.50
2010,07,16,16,12,21.40
2010,07,16,16,13,21.40
2010,07,16,16,14,21.40
2010,07,16,16,15,21.40
2010,07,16,16,16,21.40
2010,07,16,16,17,21.40
2010,07,16,16,18,21.40
2010,07,16,16,19,21.40
2010,07,16,16,20,21.40
2010,07,16,16,21,21.30
2010,07,16,16,22,21.30
2010,07,16,16,23,21.20
2010,07,16,16,24,21.20
2010,07,16,16,25,21.20
2010,07,16,16,26,21.10
2010,07,16,16,27,21.00
2010,07,16,16,28,21.00
2010,07,16,16,29,20.90
2010,07,16,16,30,20.90
2010,07,16,16,31,20.80
2010,07,16,16,32,20.80
2010,07,16,16,33,20.80
2010,07,16,16,34,20.90
2010,07,16,16,35,21.00
2010,07,16,16,36,21.00
2010,07,16,16,37,21.10
2010,07,16,16,38,21.10
2010,07,16,16,39,21.10
2010,07,16,16,40,21.10
2010,07,16,16,41,21.10
2010,07,16,16,42,21.10
2010,07,16,16,43,21.20
2010,07,16,16,44,21.20
2010,07,16,16,45,21.20
2010,07,16,16,46,21.20
2010,07,16,16,47,21.20
2010,07,16,16,48,21.10
2010,07,16,16,49,21.00
2010,07,16,16,50,20.80
2010,07,16,16,51,20.70
2010,07,16,16,52,20.70
2010,07,16,16,53,20.60
2010,07,16,16,54,20.60
2010,07,16,16,55,20.60
2010,07,16,16,56,20.70
2010,07,16,16,57,20.70
2010,07,16,16,58,20.70
2010,07,16,16,59,20.80
2010,07,16,17,00,20.80
2010,07,16,17,01,20.90
2010,07,16,17,02,20.90
2010,07,16,17,03,21.00
2010,07,16,17,04,21.00
2010,07,16,17,05,21.10
2010,07,16,17,06,21.10
2010,07,16,17,07,21.20
2010,07,16,17,08,21.30
2010,07,16,17,09,21.30
2010,07,16,17,10,21.30
2010,07,16,17,11,21.20
2010,07,16,17,12,21.20
2010,07,16,17,13,21.20
2010,07,16,17,14,21.20
2010,07,16,17,15,21.10
2010,07,16,17,16,21.10
2010,07,16,17,17,21.10
2010,07,16,17,18,21.10
2010,07,16,17,19,21.20
2010,07,16,17,20,21.20
2010,07,16,17,21,21.20
2010,07,16,17,22,21.30
2010,07,16,17,23,21.30
2010,07,16,17,24,21.30
2010,07,16,17,25,21.30
2010,07,16,17,26,21.30
2010,07,16,17,27,21.20
2010,07,16,17,28,21.20
2010,07,16,17,29,21.20
2010,07,16,17,30,21.20
2010,07,16,17,31,21.10
2010,07,16,17,32,21.10
2010,07,16,17,33,21.00
2010,07,16,17,34,21.00
2010,07,16,17,35,20.90
2010,07,16,17,36,20.90
2010,07,16,17,37,20.90
2010,07,16,17,38,21.00
2010,07,16,17,39,21.10
2010,07,16,17,40,21.20
2010,07,16,17,41,21.20
2010,07,16,17,42,21.20
2010,07,16,17,43,21.30
2010,07,16,17,44,21.30
2010,07,16,17,45,21.30
2010,07,16,17,46,21.30
2010,07,16,17,47,21.30
2010,07,16,17,48,21.30
2010,07,16,17,49,21.30
2010,07,16,17,50,21.30
2010,07,16,17,51,21.30
2010,07,16,17,52,21.30
2010,07,16,17,53,21.30
2010,07,16,17,54,21.30
2010,07,16,17,55,21.30
2010,07,16,17,56,21.30
2010,07,16,17,57,21.30
2010,07,16,17,58,21.30
2010,07,16,17,59,21.20
2010,07,16,18,00,21.10
2010,07,16,18,01,21.10
2010,07,16,18,02,21.10
2010,07,16,18,03,21.00
2010,07,16,18,04,20.90
2010,07,16,18,05,20.80
2010,07,16,18,06,20.80
2010,07,16,18,07,20.80
2010,07,16,18,08,20.80
2010,07,16,18,09,20.80
2010,07,16,18,10,20.80
2010,07,16,18,11,20.80
2010,07,16,18,12,20.90
2010,07,16,18,13,20.90
2010,07,16,18,14,20.90
2010,07,16,18,15,21.00
2010,07,16,18,16,21.00
2010,07,16,18,17,21.00
2010,07,16,18,18,21.00
2010,07,16,18,19,21.10
2010,07,16,18,20,21.10
2010,07,16,18,21,21.10
2010,07,16,18,22,21.00
2010,07,16,18,23,21.00
2010,07,16,18,24,20.90
2010,07,16,18,25,20.80
2010,07,16,18,26,20.80
2010,07,16,18,27,20.80
2010,07,16,18,28,20.70
2010,07,16,18,29,20.70
2010,07,16,18,30,20.70
2010,07,16,18,31,20.80
2010,07,16,18,32,20.80
2010,07,16,18,33,20.80
2010,07,16,18,34,20.80
2010,07,16,18,35,20.80
2010,07,16,18,36,20.80
2010,07,16,18,37,20.80
2010,07,16,18,38,20.80
2010,07,16,18,39,20.70
2010,07,16,18,40,20.60
2010,07,16,18,41,20.50
2010,07,16,18,42,20.30
2010,07,16,18,43,20.20
2010,07,16,18,44,20.10
2010,07,16,18,45,20.10
2010,07,16,18,46,20.00
2010,07,16,18,47,19.90
2010,07,16,18,48,20.00
2010,07,16,18,49,20.00
2010,07,16,18,50,20.10
2010,07,16,18,51,20.10
2010,07,16,18,52,20.20
2010,07,16,18,53,20.20
2010,07,16,18,54,20.30
2010,07,16,18,55,20.30
2010,07,16,18,56,20.30
2010,07,16,18,57,20.40
2010,07,16,18,58,20.40
2010,07,16,18,59,20.40
2010,07,16,19,00,20.50
2010,07,16,19,01,20.50
2010,07,16,19,02,20.50
2010,07,16,19,03,20.40
2010,07,16,19,04,20.40
2010,07,16,19,05,20.30
2010,07,16,19,06,20.30
2010,07,16,19,07,20.20
2010,07,16,19,08,20.10
2010,07,16,19,09,20.10
2010,07,16,19,10,20.00
2010,07,16,19,11,20.10
2010,07,16,19,12,20.10
2010,07,16,19,13,20.10
2010,07,16,19,14,20.10
2010,07,16,19,15,20.10
2010,07,16,19,16,20.00
2010,07,16,19,17,20.00
2010,07,16,19,18,20.00
2010,07,16,19,19,19.90
2010,07,16,19,20,19.90
2010,07,16,19,21,19.80
2010,07,16,19,22,19.80
2010,07,16,19,23,19.70
2010,07,16,19,24,19.70
2010,07,16,19,25,19.60
2010,07,16,19,26,19.60
2010,07,16,19,27,19.50
2010,07,16,19,28,19.50
2010,07,16,19,29,19.40
2010,07,16,19,30,19.30
2010,07,16,19,31,19.30
2010,07,16,19,32,19.30
2010,07,16,19,33,19.20
2010,07,16,19,34,19.20
2010,07,16,19,35,19.20
2010,07,16,19,36,19.10
2010,07,16,19,37,19.10
2010,07,16,19,38,19.00
2010,07,16,19,39,19.00
2010,07,16,19,40,18.90
2010,07,16,19,41,18.90
2010,07,16,19,42,18.80
2010,07,16,19,43,18.80
2010,07,16,19,44,18.80
2010,07,16,19,45,18.70
2010,07,16,19,46,18.70
2010,07,16,19,47,18.60
2010,07,16,19,48,18.60
2010,07,16,19,49,18.50
2010,07,16,19,50,18.50
2010,07,16,19,51,18.40
2010,07,16,19,52,18.40
2010,07,16,19,53,18.40
2010,07,16,19,54,18.40
2010,07,16,19,55,18.40
2010,07,16,19,56,18.40
2010,07,16,19,57,18.30
2010,07,16,19,58,18.30
2010,07,16,19,59,18.30
2010,07,16,20,00,18.30
2010,07,16,20,01,18.30
2010,07,16,20,02,18.30
2010,07,16,20,03,18.20
2010,07,16,20,04,18.20
2010,07,16,20,05,18.20
2010,07,16,20,06,18.20
2010,07,16,20,07,18.20
2010,07,16,20,08,18.20
2010,07,16,20,09,18.10
2010,07,16,20,10,18.10
2010,07,16,20,11,18.00
2010,07,16,20,12,18.00
2010,07,16,20,13,17.90
2010,07,16,20,14,17.90
2010,07,16,20,15,17.90
2010,07,16,20,16,17.80
2010,07,16,20,17,17.80
2010,07,16,20,18,17.70
2010,07,16,20,19,17.70
2010,07,16,20,20,17.70
2010,07,16,20,21,17.60
2010,07,16,20,22,17.60
2010,07,16,20,23,17.60
2010,07,16,20,24,17.50
2010,07,16,20,25,17.50
2010,07,16,20,26,17.40
2010,07,16,20,27,17.40
2010,07,16,20,28,17.40
2010,07,16,20,29,17.40
2010,07,16,20,30,17.30
2010,07,16,20,31,17.30
2010,07,16,20,32,17.30
2010,07,16,20,33,17.30
2010,07,16,20,34,17.30
2010,07,16,20,35,17.30
2010,07,16,20,36,17.20
2010,07,16,20,37,17.20
2010,07,16,20,38,17.20
2010,07,16,20,39,17.20
2010,07,16,20,40,17.10
2010,07,16,20,41,17.10
2010,07,16,20,42,17.10
2010,07,16,20,43,17.00
2010,07,16,20,44,17.00
2010,07,16,20,45,16.90
2010,07,16,20,46,16.90
2010,07,16,20,47,16.90
2010,07,16,20,48,16.90
2010,07,16,20,49,16.80
2010,07,16,20,50,16.80
2010,07,16,20,51,16.80
2010,07,16,20,52,16.80
2010,07,16,20,53,16.80
2010,07,16,20,54,16.80
2010,07,16,20,55,16.70
2010,07,16,20,56,16.70
2010,07,16,20,57,16.70
2010,07,16,20,58,16.70
2010,07,16,20,59,16.70
2010,07,16,21,00,16.70
2010,07,16,21,01,16.60
2010,07,16,21,02,16.60
2010,07,16,21,03,16.60
2010,07,16,21,04,16.60
2010,07,16,21,05,16.50
2010,07,16,21,06,16.50
2010,07,16,21,07,16.50
2010,07,16,21,08,16.40
2010,07,16,21,09,16.40
2010,07,16,21,10,16.40
2010,07,16,21,11,16.40
2010,07,16,21,12,16.30
2010,07,16,21,13,16.30
2010,07,16,21,14,16.30
2010,07,16,21,15,16.20
2010,07,16,21,16,16.20
2010,07,16,21,17,16.10
2010,07,16,21,18,16.10
2010,07,16,21,19,16.00
2010,07,16,21,20,16.00
2010,07,16,21,21,15.90
2010,07,16,21,22,15.90
2010,07,16,21,23,15.80
2010,07,16,21,24,15.80
2010,07,16,21,25,15.70
2010,07,16,21,26,15.70
2010,07,16,21,27,15.60
2010,07,16,21,28,15.60
2010,07,16,21,29,15.50
2010,07,16,21,30,15.50
2010,07,16,21,31,15.50
2010,07,16,21,32,15.50
2010,07,16,21,33,15.50
2010,07,16,21,34,15.40
2010,07,16,21,35,15.40
2010,07,16,21,36,15.30
2010,07,16,21,37,15.20
2010,07,16,21,38,15.20
2010,07,16,21,39,15.20
2010,07,16,21,40,15.20
2010,07,16,21,41,15.10
2010,07,16,21,42,15.10
2010,07,16,21,43,15.00
2010,07,16,21,44,15.00
2010,07,16,21,45,15.00
2010,07,16,21,46,15.00
2010,07,16,21,47,15.00
2010,07,16,21,48,15.00
2010,07,16,21,49,15.00
2010,07,16,21,50,15.00
2010,07,16,21,51,15.00
2010,07,16,21,52,15.00
2010,07,16,21,53,15.00
2010,07,16,21,54,15.00
2010,07,16,21,55,15.00
2010,07,16,21,56,15.00
2010,07,16,21,57,15.00
2010,07,16,21,58,15.00
2010,07,16,21,59,15.00
2010,07,16,22,00,15.00
2010,07,16,22,01,15.00
2010,07,16,22,02,15.00
2010,07,16,22,03,15.00
2010,07,16,22,04,14.90
2010,07,16,22,05,14.90
2010,07,16,22,06,14.80
2010,07,16,22,07,14.80
2010,07,16,22,08,14.80
2010,07,16,22,09,14.70
2010,07,16,22,10,14.70
2010,07,16,22,11,14.60
2010,07,16,22,12,14.60
2010,07,16,22,13,14.50
2010,07,16,22,14,14.40
2010,07,16,22,15,14.40
2010,07,16,22,16,14.40
2010,07,16,22,17,14.30
2010,07,16,22,18,14.30
2010,07,16,22,19,14.20
2010,07,16,22,20,14.20
2010,07,16,22,21,14.20
2010,07,16,22,22,14.20
2010,07,16,22,23,14.10
2010,07,16,22,24,14.10
2010,07,16,22,25,14.10
2010,07,16,22,26,14.10
2010,07,16,22,27,14.00
2010,07,16,22,28,13.90
2010,07,16,22,29,13.90
2010,07,16,22,30,13.90
2010,07,16,22,31,13.80
2010,07,16,22,32,13.80
2010,07,16,22,33,13.80
2010,07,16,22,34,13.70
2010,07,16,22,35,13.70
2010,07,16,22,36,13.70
2010,07,16,22,37,13.70
2010,07,16,22,38,13.60
2010,07,16,22,39,13.60
2010,07,16,22,40,13.60
2010,07,16,22,41,13.60
2010,07,16,22,42,13.60
2010,07,16,22,43,13.50
2010,07,16,22,44,13.50
2010,07,16,22,45,13.50
2010,07,16,22,46,13.40
2010,07,16,22,47,13.40
2010,07,16,22,48,13.40
2010,07,16,22,49,13.40
2010,07,16,22,50,13.40
2010,07,16,22,51,13.30
2010,07,16,22,52,13.30
2010,07,16,22,53,13.30
2010,07,16,22,54,13.30
2010,07,16,22,55,13.30
2010,07,16,22,56,13.20
2010,07,16,22,57,13.20
2010,07,16,22,58,13.20
2010,07,16,22,59,13.20
2010,07,16,23,00,13.20
2010,07,16,23,01,13.10
2010,07,16,23,02,13.10
2010,07,16,23,03,13.10
2010,07,16,23,04,13.10
2010,07,16,23,05,13.10
2010,07,16,23,06,13.10
2010,07,16,23,07,13.00
2010,07,16,23,08,13.00
2010,07,16,23,09,13.00
2010,07,16,23,10,13.00
2010,07,16,23,11,13.00
2010,07,16,23,12,13.00
2010,07,16,23,13,12.90
2010,07,16,23,14,12.90
2010,07,16,23,15,12.90
2010,07,16,23,16,12.90
2010,07,16,23,17,12.90
2010,07,16,23,18,12.90
2010,07,16,23,19,12.90
2010,07,16,23,20,12.90
2010,07,16,23,21,12.90
2010,07,16,23,22,12.90
2010,07,16,23,23,12.90
2010,07,16,23,24,12.80
2010,07,16,23,25,12.80
2010,07,16,23,26,12.80
2010,07,16,23,27,12.80
2010,07,16,23,28,12.80
2010,07,16,23,29,12.80
2010,07,16,23,30,12.80
2010,07,16,23,31,12.80
2010,07,16,23,32,12.80
2010,07,16,23,33,12.70
2010,07,16,23,34,12.70
2010,07,16,23,35,12.70
2010,07,16,23,36,12.70
2010,07,16,23,37,12.70
2010,07,16,23,38,12.70
2010,07,16,23,39,12.70
2010,07,16,23,40,12.70
2010,07,16,23,41,12.60
2010,07,16,23,42,12.60
2010,07,16,23,43,12.60
2010,07,16,23,44,12.60
2010,07,16,23,45,12.60
2010,07,16,23,46,12.60
2010,07,16,23,47,12.60
2010,07,16,23,48,12.60
2010,07,16,23,49,12.60
2010,07,16,23,50,12.50
2010,07,16,23,51,12.50
2010,07,16,23,52,12.50
2010,07,16,23,53,12.50
2010,07,16,23,54,12.50
2010,07,16,23,55,12.40
2010,07,16,23,56,12.40
2010,07,16,23,57,12.40
2010,07,16,23,58,12.40
2010,07,16,23,59,12.40
